TimeMDT,TemperatureF,Dew PointF,Humidity,Sea Level PressureIn,VisibilityMPH,Wind Direction,Wind SpeedMPH,Gust SpeedMPH,PrecipitationIn,Events,Conditions,WindDirDegrees,DateUTC
12:53 AM,50.0,46.9,89,30.05,10.0,NNW,10.4,20.7,0.05,Rain,Light Rain,340,2013-05-20 06:53:00
1:01 AM,50.0,48.0,93,30.05,10.0,NW,11.5,-,0.00,Rain,Light Rain,320,2013-05-20 07:01:00
1:07 AM,50.0,48.0,93,30.05,10.0,NNW,12.7,-,0.00,Rain,Light Rain,330,2013-05-20 07:07:00
1:53 AM,51.1,48.0,89,30.04,10.0,NNW,15.0,-,0.00,,Overcast,340,2013-05-20 07:53:00
2:53 AM,50.0,46.9,89,30.03,10.0,NNW,13.8,-,N/A,,Scattered Clouds,340,2013-05-20 08:53:00
3:53 AM,48.9,46.0,90,30.04,10.0,NNW,15.0,-,N/A,,Mostly Cloudy,330,2013-05-20 09:53:00
4:53 AM,48.9,46.0,90,30.06,10.0,NNW,15.0,-,N/A,,Partly Cloudy,330,2013-05-20 10:53:00
5:53 AM,48.2,46.4,93,30.08,10.0,NNW,13.8,-,N/A,,Mostly Cloudy,330,2013-05-20 11:53:00
6:53 AM,48.9,46.0,90,30.09,10.0,NNW,15.0,-,N/A,,Mostly Cloudy,330,2013-05-20 12:53:00
7:53 AM,51.8,46.4,82,30.09,10.0,NNW,16.1,-,N/A,,Scattered Clouds,330,2013-05-20 13:53:00
8:53 AM,53.1,48.0,83,30.08,10.0,NNW,17.3,-,N/A,,Mostly Cloudy,330,2013-05-20 14:53:00
9:53 AM,57.0,48.0,72,30.09,10.0,North,17.3,-,N/A,,Scattered Clouds,350,2013-05-20 15:53:00
10:53 AM,59.0,46.9,64,30.08,10.0,North,15.0,25.3,N/A,,Mostly Cloudy,350,2013-05-20 16:53:00
11:53 AM,62.1,43.0,50,30.07,10.0,North,26.5,32.2,N/A,,Scattered Clouds,350,2013-05-20 17:53:00
12:53 PM,62.1,42.1,48,30.07,10.0,NNE,19.6,25.3,N/A,,Scattered Clouds,20,2013-05-20 18:53:00
1:53 PM,63.0,35.1,35,30.06,10.0,North,24.2,33.4,N/A,,Scattered Clouds,360,2013-05-20 19:53:00
2:53 PM,66.0,35.1,32,30.05,10.0,North,21.9,28.8,N/A,,Scattered Clouds,360,2013-05-20 20:53:00
3:53 PM,64.0,32.0,30,30.05,10.0,North,20.7,31.1,N/A,,Scattered Clouds,10,2013-05-20 21:53:00
4:53 PM,63.0,27.0,26,30.06,10.0,NNE,23.0,28.8,N/A,,Partly Cloudy,30,2013-05-20 22:53:00
5:53 PM,62.1,30.0,30,30.07,10.0,NNE,15.0,23.0,N/A,,Partly Cloudy,20,2013-05-20 23:53:00
6:53 PM,60.1,32.0,35,30.09,10.0,NE,15.0,-,N/A,,Partly Cloudy,50,2013-05-21 00:53:00
7:53 PM,55.4,42.8,63,30.13,10.0,ENE,10.4,-,N/A,,Scattered Clouds,70,2013-05-21 01:53:00
8:53 PM,53.1,39.9,61,30.13,10.0,ENE,9.2,-,N/A,,Scattered Clouds,70,2013-05-21 02:53:00
9:53 PM,52.0,39.9,63,30.14,10.0,ESE,5.8,-,N/A,,Mostly Cloudy,110,2013-05-21 03:53:00
10:53 PM,52.0,41.0,66,30.13,10.0,SSW,3.5,-,0.00,Rain,Light Rain,200,2013-05-21 04:53:00
11:53 PM,51.1,39.0,63,30.10,10.0,WSW,10.4,-,0.00,,Scattered Clouds,240,2013-05-21 05:53:00